Twin Falls, ID

5:25 AM MDT on September 28, 2016 (GMT -0600)
Joslin Field-Magic Valley Regional

Weather History for KTWF - October, 2012

Change the Weather History Date:

Saturday, October 6, 2012

  Actual Average Record
Temperature  
Mean Temperature 44 °F -  
Max Temperature 59 °F 68 °F 80 °F (1988)
Min Temperature 29 °F 41 °F 21 °F (2005)
Degree Days  
Heating Degree Days 21 11  
Month to date heating degree days 78 61  
Since 1 July heating degree days 94 222  
Cooling Degree Days 0 0  
Month to date cooling degree days 5 0  
Year to date cooling degree days 970 678  
Moisture  
Dew Point 16 °F    
Average Humidity 38    
Maximum Humidity 58    
Minimum Humidity 17    
Precipitation  
Precipitation 0.00 in 0.02 in 0.31 in (2006)
Month to date precipitation 0.00 0.12  
Year to date precipitation 6.92 7.57  
Sea Level Pressure  
Sea Level Pressure 30.20 in    
Wind  
Wind Speed 9 mph (East)    
Max Wind Speed 20 mph    
Max Gust Speed 24 mph    
Visibility 10 miles    
Events      
T = Trace of Precipitation, MM = Missing Value Source: NWS Daily Summary

Daily Weather History Graph

Daily Weather History Graph

Search for Another Location

Airport or City:

Trip Planner

Search our weather history database for the weather conditions in past years. The results will help you decide how hot, cold, wet, or windy it might be!

Date:

Astronomy

Oct. 06, 2012 Rise Set
Actual Time 7:41 AM MDT 7:09 PM MDT
Civil Twilight 7:13 AM MDT 7:37 PM MDT
Nautical Twilight 6:40 AM MDT 8:10 PM MDT
Astronomical Twilight 6:07 AM MDT 8:43 PM MDT
Moon 11:23 PM MDT (10/6) 1:44 PM MDT (10/6)
Length of Visible Light 12h 24m
Length of Day
11h 28m
Waning Gibbous, 65% of the Moon is Illuminated
Oct 6
Waning Gibbous
Oct 8
Last Quarter
Oct 15
New
Oct 21
First Quarter
Oct 29
Full

Hourly Weather History & Observations

Time (MDT) Temp. Windchill Dew Point Humidity Pressure Visibility Wind Dir Wind Speed Gust Speed Precip Events Conditions
12:53 AM 37.9 °F 31.5 °F 14.0 °F 38% 30.18 in 10.0 mi SSW 9.2 mph - N/A   Clear
1:53 AM 39.9 °F 33.9 °F 12.9 °F 33% 30.18 in 10.0 mi SSW 9.2 mph - N/A   Clear
2:53 AM 30.9 °F 22.8 °F 17.1 °F 57% 30.22 in 10.0 mi ESE 9.2 mph - N/A   Clear
3:53 AM 30.9 °F 22.2 °F 16.0 °F 54% 30.22 in 10.0 mi SE 10.4 mph - N/A   Clear
4:53 AM 37.0 °F 29.3 °F 15.1 °F 41% 30.20 in 10.0 mi East 11.5 mph - N/A   Clear
5:53 AM 34.0 °F 27.2 °F 16.0 °F 48% 30.21 in 10.0 mi East 8.1 mph - N/A   Clear
6:53 AM 30.9 °F 25.2 °F 16.0 °F 54% 30.25 in 10.0 mi ENE 5.8 mph - N/A   Clear
7:53 AM 35.1 °F 27.4 °F 16.0 °F 46% 30.27 in 10.0 mi East 10.4 mph - N/A   Clear
8:53 AM 37.9 °F 30.5 °F 17.1 °F 43% 30.28 in 10.0 mi East 11.5 mph - N/A   Clear
9:53 AM 41.0 °F 32.5 °F 18.0 °F 40% 30.27 in 10.0 mi ENE 17.3 mph - N/A   Clear
10:53 AM 46.0 °F 39.3 °F 18.0 °F 33% 30.26 in 9.0 mi ENE 16.1 mph - N/A   Clear
11:53 AM 50.0 °F - 17.1 °F 27% 30.22 in 10.0 mi ENE 16.1 mph - N/A   Clear
12:53 PM 52.0 °F - 15.1 °F 23% 30.21 in 10.0 mi NE 11.5 mph - N/A   Clear
1:53 PM 55.0 °F - 14.0 °F 20% 30.17 in 10.0 mi East 8.1 mph - N/A   Clear
2:53 PM 57.0 °F - 12.9 °F 18% 30.16 in 10.0 mi ENE 8.1 mph - N/A   Clear
3:53 PM 57.9 °F - 12.0 °F 16% 30.15 in 10.0 mi NE 8.1 mph - N/A   Clear
5:53 PM 57.9 °F - 12.9 °F 17% 30.12 in 10.0 mi NE 6.9 mph - N/A   Clear
6:53 PM 53.1 °F - 23.0 °F 31% 30.14 in 10.0 mi NE 3.5 mph - N/A   Clear
7:53 PM 37.0 °F 34.5 °F 18.0 °F 46% 30.18 in 10.0 mi SW 3.5 mph - N/A   Clear
8:53 PM 39.9 °F - 15.1 °F 36% 30.17 in 6.0 mi Calm Calm - N/A   Haze
9:53 PM 32.0 °F 28.7 °F 17.1 °F 54% 30.18 in 9.0 mi WSW 3.5 mph - N/A   Clear
10:53 PM 33.1 °F 26.9 °F 15.1 °F 48% 30.17 in 10.0 mi South 6.9 mph - N/A   Clear
11:53 PM 36.0 °F 29.6 °F 12.9 °F 39% 30.16 in 10.0 mi South 8.1 mph - N/A   Clear